ARIANE 5 R/B

基本信息
目录编号:
27832
目录名称:
ARIANE 5 R/B
国际标识:
2003-028C
轨道中心:
EARTH
物体状态:
在轨
发射日期:
2003-06-11 UTC
国别:
法国 (FR)
轨道信息
数据来源: 国际轨道数据
星历时间: 2026-07-13T15:52:48+0800
半长轴: 24611.86km
偏心率: 0.7184733
轨道倾角: 6.767°
近地点辐角: 323.567°
升交点赤经: 106.876°
平近点角: 4.521°
近地点: 550.758km
远地点: 35916.688km
周期: 640.437分钟
每日圈数: 2.248465
详细信息
发射场:
FRGUI
轨道高度:
LEO
数据来源:
AOE Integration Group
参考系:
TEME
时间系统:
UTC
历元类型:
SGP4
2D轨道图
3D轨道图
轨道高度分析图
轨道倾角分析图
轨道综合分析图
查看轨道综合分析图